Time,TemperatureF,DewpointF,PressureIn,WindDirection,WindDirectionDegrees,WindSpeedMPH,WindSpeedGustMPH,Humidity,HourlyPrecipIn,Conditions,Clouds,dailyrainin,SolarRadiationWatts/m^2,SoftwareType,DateUTC
2013-01-21 00:02:00,11.0,8.0,-100.00,NE,37,0.0,4.0,89,0.00,,,0.00,0.000000,,2013-01-21 09:02:00,
2013-01-21 00:11:00,11.0,8.0,-100.00,NE,37,0.0,4.0,89,0.00,,,0.00,0.000000,,2013-01-21 09:11:00,
2013-01-21 00:43:00,11.0,8.0,-100.00,NE,54,1.0,4.0,89,0.00,,,0.00,0.000000,,2013-01-21 09:43:00,
2013-01-21 00:53:00,11.0,8.0,-100.00,NE,54,1.0,4.0,89,0.00,,,0.00,0.000000,,2013-01-21 09:53:00,
2013-01-21 01:02:00,11.0,8.0,-100.00,NE,54,1.0,4.0,89,0.00,,,0.00,0.000000,,2013-01-21 10:02:00,
2013-01-21 01:12:00,11.0,8.0,-100.00,NE,54,1.0,4.0,89,0.00,,,0.00,0.000000,,2013-01-21 10:12:00,
2013-01-21 01:43:00,10.0,8.0,-100.00,NE,53,0.0,1.0,92,0.00,,,0.00,0.000000,,2013-01-21 10:43:00,
2013-01-21 01:52:00,10.0,8.0,-100.00,NE,53,0.0,1.0,92,0.00,,,0.00,0.000000,,2013-01-21 10:52:00,
2013-01-21 02:02:00,10.0,8.0,-100.00,NE,53,0.0,1.0,92,0.00,,,0.00,0.000000,,2013-01-21 11:02:00,
2013-01-21 02:12:00,10.0,8.0,-100.00,NE,53,0.0,1.0,92,0.00,,,0.00,0.000000,,2013-01-21 11:12:00,
2013-01-21 02:43:00,10.0,8.0,-100.00,ENE,72,3.0,4.0,90,0.00,,,0.00,0.000000,,2013-01-21 11:43:00,
2013-01-21 02:53:00,10.0,8.0,-100.00,ENE,72,3.0,4.0,90,0.00,,,0.00,0.000000,,2013-01-21 11:53:00,
2013-01-21 03:02:00,10.0,8.0,-100.00,ENE,72,3.0,4.0,90,0.00,,,0.00,0.000000,,2013-01-21 12:02:00,
2013-01-21 03:12:00,10.0,8.0,-100.00,ENE,72,3.0,4.0,90,0.00,,,0.00,0.000000,,2013-01-21 12:12:00,
2013-01-21 03:43:00,10.0,7.0,-100.00,NE,52,3.0,5.0,89,0.00,,,0.00,0.000000,,2013-01-21 12:43:00,
2013-01-21 03:53:00,10.0,7.0,-100.00,NE,52,3.0,5.0,89,0.00,,,0.00,0.000000,,2013-01-21 12:53:00,
2013-01-21 04:02:00,10.0,7.0,-100.00,NE,52,3.0,5.0,89,0.00,,,0.00,0.000000,,2013-01-21 13:02:00,
2013-01-21 04:12:00,10.0,7.0,-100.00,NE,52,3.0,5.0,89,0.00,,,0.00,0.000000,,2013-01-21 13:12:00,
2013-01-21 04:43:00,11.0,8.0,-100.00,NE,42,1.0,5.0,86,0.00,,,0.00,0.000000,,2013-01-21 13:43:00,
2013-01-21 04:53:00,11.0,8.0,-100.00,NE,42,1.0,5.0,86,0.00,,,0.00,0.000000,,2013-01-21 13:53:00,
2013-01-21 05:03:00,11.0,8.0,-100.00,NE,42,1.0,5.0,86,0.00,,,0.00,0.000000,,2013-01-21 14:03:00,
2013-01-21 05:12:00,11.0,8.0,-100.00,NE,42,1.0,5.0,86,0.00,,,0.00,0.000000,,2013-01-21 14:12:00,
2013-01-21 05:33:00,11.0,7.0,-100.00,NE,52,3.0,6.0,84,0.00,,,-99.99,0.000000,,2013-01-21 14:33:00,
2013-01-21 05:43:00,11.0,7.0,-100.00,NE,52,3.0,6.0,84,0.00,,,-99.99,0.000000,,2013-01-21 14:43:00,
2013-01-21 05:53:00,11.0,7.0,-100.00,NE,52,3.0,6.0,84,0.00,,,-99.99,0.000000,,2013-01-21 14:53:00,
2013-01-21 06:03:00,11.0,7.0,-100.00,NE,52,3.0,6.0,84,0.00,,,-99.99,0.000000,,2013-01-21 15:03:00,
2013-01-21 06:12:00,11.0,7.0,-100.00,NE,52,3.0,6.0,84,0.00,,,-99.99,0.000000,,2013-01-21 15:12:00,
2013-01-21 06:33:00,10.0,6.0,-100.00,NNE,23,1.0,5.0,83,0.00,,,-99.99,0.000000,,2013-01-21 15:33:00,
2013-01-21 06:43:00,10.0,6.0,-100.00,NNE,23,1.0,5.0,83,0.00,,,-99.99,0.000000,,2013-01-21 15:43:00,
2013-01-21 06:53:00,10.0,6.0,-100.00,NNE,23,1.0,5.0,83,0.00,,,-99.99,0.000000,,2013-01-21 15:53:00,
2013-01-21 07:03:00,10.0,6.0,-100.00,NNE,23,1.0,5.0,83,0.00,,,-99.99,0.000000,,2013-01-21 16:03:00,
2013-01-21 07:12:00,10.0,6.0,-100.00,NNE,23,1.0,5.0,83,0.00,,,-99.99,0.000000,,2013-01-21 16:12:00,
2013-01-21 07:33:00,11.0,6.0,-100.00,NE,50,3.0,6.0,81,0.00,,,0.00,0.000000,,2013-01-21 16:33:00,
2013-01-21 07:43:00,11.0,6.0,-100.00,NE,50,3.0,6.0,81,0.00,,,0.00,0.000000,,2013-01-21 16:43:00,
2013-01-21 07:53:00,11.0,6.0,-100.00,NE,50,3.0,6.0,81,0.00,,,0.00,0.000000,,2013-01-21 16:53:00,
2013-01-21 08:02:00,11.0,6.0,-100.00,NE,50,3.0,6.0,81,0.00,,,0.00,0.000000,,2013-01-21 17:02:00,
2013-01-21 08:12:00,11.0,6.0,-100.00,NE,50,3.0,6.0,81,0.00,,,0.00,0.000000,,2013-01-21 17:12:00,
2013-01-21 08:43:00,10.0,5.0,-100.00,NE,55,3.0,6.0,80,0.00,,,0.00,0.000000,,2013-01-21 17:43:00,
2013-01-21 08:53:00,10.0,5.0,-100.00,NE,55,3.0,6.0,80,0.00,,,0.00,0.000000,,2013-01-21 17:53:00,
2013-01-21 09:02:00,10.0,5.0,-100.00,NE,55,3.0,6.0,80,0.00,,,0.00,0.000000,,2013-01-21 18:02:00,
2013-01-21 09:12:00,10.0,5.0,-100.00,NE,55,3.0,6.0,80,0.00,,,0.00,0.000000,,2013-01-21 18:12:00,
2013-01-21 09:33:00,10.0,5.0,-100.00,NE,49,3.0,7.0,79,0.00,,,0.00,0.000000,,2013-01-21 18:33:00,
2013-01-21 09:43:00,10.0,5.0,-100.00,NE,49,3.0,7.0,79,0.00,,,0.00,0.000000,,2013-01-21 18:43:00,
2013-01-21 09:53:00,10.0,5.0,-100.00,NE,49,3.0,7.0,79,0.00,,,0.00,0.000000,,2013-01-21 18:53:00,
2013-01-21 10:03:00,10.0,5.0,-100.00,NE,49,3.0,7.0,79,0.00,,,0.00,0.000000,,2013-01-21 19:03:00,
2013-01-21 10:12:00,10.0,5.0,-100.00,NE,49,3.0,7.0,79,0.00,,,0.00,0.000000,,2013-01-21 19:12:00,
2013-01-21 10:43:00,10.0,5.0,-100.00,NE,55,4.0,9.0,78,0.00,,,-99.99,0.000000,,2013-01-21 19:43:00,
2013-01-21 10:53:00,10.0,5.0,-100.00,NE,55,4.0,9.0,78,0.00,,,-99.99,0.000000,,2013-01-21 19:53:00,
2013-01-21 11:03:00,10.0,5.0,-100.00,NE,55,4.0,9.0,78,0.00,,,-99.99,0.000000,,2013-01-21 20:03:00,
2013-01-21 11:12:00,10.0,5.0,-100.00,NE,55,4.0,9.0,78,0.00,,,-99.99,0.000000,,2013-01-21 20:12:00,
2013-01-21 11:43:00,10.0,6.0,-100.00,East,82,0.0,7.0,83,0.00,,,0.00,2.000000,,2013-01-21 20:43:00,
2013-01-21 11:53:00,10.0,6.0,-100.00,East,82,0.0,7.0,83,0.00,,,0.00,2.000000,,2013-01-21 20:53:00,
2013-01-21 12:03:00,10.0,6.0,-100.00,East,82,0.0,7.0,83,0.00,,,0.00,2.000000,,2013-01-21 21:03:00,
2013-01-21 12:12:00,10.0,6.0,-100.00,East,82,0.0,7.0,83,0.00,,,0.00,2.000000,,2013-01-21 21:12:00,
2013-01-21 12:33:00,11.0,7.0,-100.00,ENE,60,1.0,1.0,82,0.00,,,0.00,6.000000,,2013-01-21 21:33:00,
2013-01-21 12:43:00,11.0,7.0,-100.00,ENE,60,1.0,1.0,82,0.00,,,0.00,6.000000,,2013-01-21 21:43:00,
2013-01-21 12:53:00,11.0,7.0,-100.00,ENE,60,1.0,1.0,82,0.00,,,0.00,6.000000,,2013-01-21 21:53:00,
2013-01-21 13:03:00,11.0,7.0,-100.00,ENE,60,1.0,1.0,82,0.00,,,0.00,6.000000,,2013-01-21 22:03:00,
2013-01-21 13:12:00,11.0,7.0,-100.00,ENE,60,1.0,1.0,82,0.00,,,0.00,6.000000,,2013-01-21 22:12:00,
2013-01-21 13:33:00,11.0,6.0,-100.00,ENE,57,3.0,5.0,79,0.00,,,0.00,10.000000,,2013-01-21 22:33:00,
2013-01-21 13:43:00,11.0,6.0,-100.00,ENE,57,3.0,5.0,79,0.00,,,0.00,10.000000,,2013-01-21 22:43:00,
2013-01-21 13:53:00,11.0,6.0,-100.00,ENE,57,3.0,5.0,79,0.00,,,0.00,10.000000,,2013-01-21 22:53:00,
2013-01-21 14:03:00,11.0,6.0,-100.00,ENE,57,3.0,5.0,79,0.00,,,0.00,10.000000,,2013-01-21 23:03:00,
2013-01-21 14:12:00,11.0,6.0,-100.00,ENE,57,3.0,5.0,79,0.00,,,0.00,10.000000,,2013-01-21 23:12:00,
2013-01-21 14:33:00,12.0,6.0,-100.00,NE,41,0.0,5.0,76,0.00,,,0.00,6.000000,,2013-01-21 23:33:00,
2013-01-21 14:43:00,12.0,6.0,-100.00,NE,41,0.0,5.0,76,0.00,,,0.00,6.000000,,2013-01-21 23:43:00,
2013-01-21 14:53:00,12.0,6.0,-100.00,NE,41,0.0,5.0,76,0.00,,,0.00,6.000000,,2013-01-21 23:53:00,
2013-01-21 15:02:00,12.0,6.0,-100.00,NE,41,0.0,5.0,76,0.00,,,0.00,6.000000,,2013-01-22 00:02:00,
2013-01-21 15:12:00,12.0,6.0,-100.00,NE,41,0.0,5.0,76,0.00,,,0.00,6.000000,,2013-01-22 00:12:00,
2013-01-21 15:33:00,11.0,5.0,-100.00,ENE,73,1.0,5.0,77,0.00,,,0.00,5.000000,,2013-01-22 00:33:00,
2013-01-21 15:43:00,11.0,5.0,-100.00,ENE,73,1.0,5.0,77,0.00,,,0.00,5.000000,,2013-01-22 00:43:00,
2013-01-21 15:53:00,11.0,5.0,-100.00,ENE,73,1.0,5.0,77,0.00,,,0.00,5.000000,,2013-01-22 00:53:00,
2013-01-21 16:02:00,11.0,5.0,-100.00,ENE,73,1.0,5.0,77,0.00,,,0.00,5.000000,,2013-01-22 01:02:00,
2013-01-21 16:12:00,11.0,5.0,-100.00,ENE,73,1.0,5.0,77,0.00,,,0.00,5.000000,,2013-01-22 01:12:00,
2013-01-21 16:43:00,8.0,3.0,-100.00,ENE,64,3.0,6.0,79,0.00,,,0.00,1.000000,,2013-01-22 01:43:00,
2013-01-21 16:52:00,8.0,3.0,-100.00,ENE,64,3.0,6.0,79,0.00,,,0.00,1.000000,,2013-01-22 01:52:00,
2013-01-21 17:02:00,8.0,3.0,-100.00,ENE,64,3.0,6.0,79,0.00,,,0.00,1.000000,,2013-01-22 02:02:00,
2013-01-21 17:12:00,8.0,3.0,-100.00,ENE,64,3.0,6.0,79,0.00,,,0.00,1.000000,,2013-01-22 02:12:00,
2013-01-21 17:33:00,2.0,-1.0,-100.00,ENE,72,1.0,5.0,88,0.00,,,0.00,0.000000,,2013-01-22 02:33:00,
2013-01-21 17:43:00,2.0,-1.0,-100.00,ENE,72,1.0,5.0,88,0.00,,,0.00,0.000000,,2013-01-22 02:43:00,
2013-01-21 17:53:00,2.0,-1.0,-100.00,ENE,72,1.0,5.0,88,0.00,,,0.00,0.000000,,2013-01-22 02:53:00,
2013-01-21 18:02:00,2.0,-1.0,-100.00,ENE,72,1.0,5.0,88,0.00,,,0.00,0.000000,,2013-01-22 03:02:00,
2013-01-21 18:12:00,2.0,-1.0,-100.00,ENE,72,1.0,5.0,88,0.00,,,0.00,0.000000,,2013-01-22 03:12:00,
2013-01-21 18:42:00,3.0,1.0,-100.00,ENE,70,3.0,6.0,92,0.00,,,0.00,0.000000,,2013-01-22 03:42:00,
2013-01-21 18:52:00,3.0,1.0,-100.00,ENE,70,3.0,6.0,92,0.00,,,0.00,0.000000,,2013-01-22 03:52:00,
2013-01-21 19:02:00,3.0,1.0,-100.00,ENE,70,3.0,6.0,92,0.00,,,0.00,0.000000,,2013-01-22 04:02:00,
2013-01-21 19:11:00,3.0,1.0,-100.00,ENE,70,3.0,6.0,92,0.00,,,0.00,0.000000,,2013-01-22 04:11:00,
2013-01-21 19:33:00,0.0,-3.0,-100.00,SSE,148,0.0,6.0,85,0.00,,,0.00,0.000000,,2013-01-22 04:33:00,
2013-01-21 19:42:00,0.0,-3.0,-100.00,SSE,148,0.0,6.0,85,0.00,,,0.00,0.000000,,2013-01-22 04:42:00,
2013-01-21 19:52:00,0.0,-3.0,-100.00,SSE,148,0.0,6.0,85,0.00,,,0.00,0.000000,,2013-01-22 04:52:00,
2013-01-21 20:03:00,0.0,-3.0,-100.00,SSE,148,0.0,6.0,85,0.00,,,0.00,0.000000,,2013-01-22 05:03:00,
2013-01-21 20:12:00,0.0,-3.0,-100.00,SSE,148,0.0,6.0,85,0.00,,,0.00,0.000000,,2013-01-22 05:12:00,
2013-01-21 20:43:00,-5.0,-8.0,-100.00,ESE,106,0.0,4.0,87,0.00,,,0.00,0.000000,,2013-01-22 05:43:00,
2013-01-21 20:53:00,-5.0,-8.0,-100.00,ESE,106,0.0,4.0,87,0.00,,,0.00,0.000000,,2013-01-22 05:53:00,
2013-01-21 21:02:00,-5.0,-8.0,-100.00,ESE,106,0.0,4.0,87,0.00,,,0.00,0.000000,,2013-01-22 06:02:00,
2013-01-21 21:12:00,-5.0,-8.0,-100.00,ESE,106,0.0,4.0,87,0.00,,,0.00,0.000000,,2013-01-22 06:12:00,
2013-01-21 21:33:00,-4.0,-7.0,-100.00,NE,48,2.0,6.0,86,0.00,,,-99.99,0.000000,,2013-01-22 06:33:00,
2013-01-21 21:43:00,-4.0,-7.0,-100.00,NE,48,2.0,6.0,86,0.00,,,-99.99,0.000000,,2013-01-22 06:43:00,
2013-01-21 21:52:00,-4.0,-7.0,-100.00,NE,48,2.0,6.0,86,0.00,,,-99.99,0.000000,,2013-01-22 06:52:00,
2013-01-21 22:02:00,-4.0,-7.0,-100.00,NE,48,2.0,6.0,86,0.00,,,-99.99,0.000000,,2013-01-22 07:02:00,
2013-01-21 22:11:00,-4.0,-7.0,-100.00,NE,48,2.0,6.0,86,0.00,,,-99.99,0.000000,,2013-01-22 07:11:00,
2013-01-21 22:33:00,-7.0,-10.0,-100.00,East,92,0.0,6.0,85,0.00,,,0.00,0.000000,,2013-01-22 07:33:00,
2013-01-21 23:02:00,-7.0,-10.0,-100.00,East,92,0.0,6.0,85,0.00,,,0.00,0.000000,,2013-01-22 08:02:00,
2013-01-21 23:43:00,-10.0,-14.0,-100.00,ENE,73,1.0,4.0,83,0.00,,,0.00,0.000000,,2013-01-22 08:43:00,
2013-01-21 23:52:00,-10.0,-14.0,-100.00,ENE,73,1.0,4.0,83,0.00,,,0.00,0.000000,,2013-01-22 08:52:00,